Terminal Aerodrome Forecast
Issued by NWS

Home | Current Version | Previous Version | Text Only | Print | Product List | Glossary On
Versions: 1 2 3 4 5 6 7 8 9 10 11 12 13 14 15 16 17
106
FTUS43 KIND 282320
TAFLAF
TAF
KLAF 282320Z 2900/2924 31004KT P6SM VCTS BKN100CB
     FM290700 00000KT 4SM BR BKN250
      TEMPO 2909/2912 1 1/2SM BR BKN100
     FM291400 00000KT 4SM BR BKN015
     FM291700 VRB04KT P6SM BKN050
      AMD LTD TO CLD VIS AND WIND TIL 291300=

USA.gov is the U.S. government's official web portal to all federal, state and local government web resources and services.